PBO Station Position Time Series. Reference Frame : NAM14
Format Version,1.1.1
4-character ID,TILL
Station name,Tillamook
Begin Date, 2008-08-24
End Date, 2023-05-11
Release Date, 2023-06-22
Reference position, 45.4551296313 North Latitude, -123.8307674007 East Longitude, -4.58378 meters elevation,
Date, North (mm), East (mm), Vertical (mm), North Std. Deviation (mm), East Std. Deviation (mm),              Vertical Std. Deviation (mm), Quality,
2008-08-24,0.00, 0.00, 0.00, 2.71, 1.81, 8.30, repro,
2008-08-25,-1.17, 0.27, 6.54, 2.23, 1.52, 7.02, repro,
2008-08-26,-0.71, 0.21, 4.03, 2.22, 1.52, 6.99, repro,
2008-08-27,-0.97, 2.00, 16.17, 2.26, 1.55, 7.13, repro,
2008-08-28,-2.08, 0.88, 11.12, 2.96, 1.92, 8.73, repro,
2008-08-29,-0.52, 0.22, 3.78, 2.24, 1.55, 7.06, repro,
2008-08-30,-1.91, 0.30, 10.78, 2.24, 1.55, 7.11, repro,
2008-08-31,0.59, 1.45, 3.73, 2.21, 1.53, 6.99, repro,
2008-09-01,1.36, 0.34, -2.49, 2.23, 1.53, 7.01, repro,
2008-09-02,-0.04, 1.18, 2.28, 2.66, 2.07, 9.00, repro,
2008-09-03,-0.81, 1.65, 0.01, 2.26, 1.57, 7.18, repro,
2008-09-04,0.27, 0.27, 1.22, 2.46, 1.69, 7.89, repro,
2008-09-05,-0.10, -0.35, 4.26, 2.26, 1.56, 7.20, repro,
2008-09-06,-1.21, 0.78, 0.44, 2.22, 1.53, 7.04, repro,
2008-09-07,0.10, 1.59, 3.86, 2.24, 1.55, 7.16, repro,
2008-09-08,-2.65, 0.00, 5.46, 2.25, 1.55, 7.11, repro,
2008-09-09,-0.03, 0.64, 4.42, 2.30, 1.55, 7.19, repro,
2008-09-10,0.40, 0.10, 0.55, 2.28, 1.58, 7.21, repro,
2008-09-11,-1.93, 0.42, 7.65, 2.33, 1.62, 7.42, repro,
2008-09-12,-1.86, -0.11, 16.15, 2.24, 1.56, 7.14, repro,
2008-09-13,-0.63, -0.38, 13.38, 2.24, 1.54, 7.09, repro,
2008-09-14,-0.80, 0.80, 10.65, 2.27, 1.56, 7.17, repro,
2008-09-15,-1.02, 1.43, 5.23, 2.25, 1.54, 7.07, repro,
2008-09-16,0.06, 0.05, 3.63, 2.24, 1.56, 7.18, repro,
2008-09-17,-0.15, 0.68, 0.88, 2.30, 1.58, 7.28, repro,
2008-09-18,0.06, 0.73, 1.98, 2.23, 1.54, 6.99, repro,
2008-09-19,0.06, -0.79, 6.49, 2.25, 1.54, 7.17, repro,
2008-09-20,1.31, 0.50, 9.35, 2.24, 1.52, 7.01, repro,
2008-09-21,-1.55, 2.15, 12.24, 2.29, 1.56, 7.17, repro,
2008-09-22,0.43, 0.18, 4.03, 2.23, 1.51, 7.05, repro,
2008-09-24,1.19, 0.53, 4.35, 2.30, 1.59, 7.19, repro,
2008-09-25,0.24, 1.27, 10.66, 2.31, 1.56, 7.20, repro,
2008-09-26,-0.34, 1.27, 7.84, 2.24, 1.52, 7.04, repro,
2008-09-27,-0.34, 1.23, 1.78, 2.26, 1.54, 7.05, repro,
2008-09-28,0.52, 0.73, 1.18, 2.20, 1.51, 6.93, repro,
2008-09-29,1.02, 1.80, 4.91, 2.21, 1.51, 6.86, repro,
2008-09-30,-1.06, -0.83, 9.20, 2.25, 1.52, 7.00, repro,
2008-10-01,-0.85, 0.63, 3.17, 2.26, 1.53, 7.10, repro,
2008-10-02,-1.40, 0.08, 18.50, 2.30, 1.56, 7.20, repro,
2008-10-03,-1.26, -0.89, 10.62, 2.26, 1.56, 7.13, repro,
2008-10-04,-2.70, -1.39, 14.07, 2.26, 1.54, 7.11, repro,
2008-10-05,-1.08, 0.49, 6.63, 2.23, 1.51, 6.95, repro,
2008-10-06,-1.81, 0.03, 14.59, 2.25, 1.52, 7.04, repro,
2008-10-07,1.57, 0.28, 6.32, 2.30, 1.55, 7.17, repro,
2008-10-08,0.32, 1.17, -1.26, 2.25, 1.54, 7.09, repro,
2008-10-09,2.13, 1.94, -3.69, 2.16, 1.49, 6.86, repro,
2008-10-10,2.14, 2.25, 0.57, 2.16, 1.49, 6.80, repro,
2008-10-11,0.86, 0.94, -1.91, 2.60, 1.79, 8.10, repro,
2008-10-12,-0.17, 1.57, -1.07, 2.18, 1.51, 6.92, repro,
2008-10-13,0.08, 1.15, 4.45, 2.19, 1.52, 7.00, repro,
2008-10-14,1.95, 0.93, 4.68, 2.17, 1.50, 6.94, repro,
2008-10-15,1.43, 1.59, -1.24, 2.22, 1.51, 6.99, repro,
2008-10-16,3.36, 2.19, -0.15, 2.23, 1.54, 7.07, repro,
2008-10-17,1.55, 1.17, 2.71, 2.18, 1.52, 6.93, repro,
2008-10-18,1.22, 1.73, 0.43, 2.18, 1.52, 6.98, repro,
2008-10-19,0.41, 1.71, 2.42, 2.16, 1.51, 6.92, repro,
2008-10-20,-0.19, -1.19, 1.39, 2.19, 1.51, 7.00, repro,
2008-10-21,0.91, 2.34, 0.19, 2.18, 1.51, 6.98, repro,
2008-10-22,1.97, 2.26, -0.76, 2.15, 1.50, 6.82, repro,
2008-10-23,1.17, 2.34, -0.24, 2.21, 1.56, 7.13, repro,
2008-10-24,0.38, 1.67, 10.10, 3.09, 2.31, 10.54, repro,
2008-10-25,0.44, 2.10, 2.67, 2.16, 1.49, 6.87, repro,
2008-10-26,0.20, 2.07, -7.18, 2.15, 1.49, 6.84, repro,
2008-10-27,1.47, 1.71, -1.43, 2.16, 1.50, 6.89, repro,
2008-10-28,1.28, 1.33, -4.42, 2.26, 1.52, 6.97, repro,
2008-10-29,1.05, 1.03, 3.80, 2.28, 1.54, 7.11, repro,
2008-10-30,1.48, 1.04, 9.94, 2.20, 1.53, 7.05, repro,
2008-10-31,0.71, 0.76, 11.12, 2.24, 1.56, 7.11, repro,
2008-11-01,2.05, 1.18, 15.18, 2.19, 1.52, 6.93, repro,
2008-11-02,0.72, -0.07, 11.83, 2.19, 1.54, 7.04, repro,
2008-11-03,1.89, 0.35, 8.53, 2.20, 1.54, 7.05, repro,
2008-11-04,2.30, 0.60, 6.95, 2.19, 1.55, 7.08, repro,
2008-11-05,1.72, 2.35, 1.21, 2.17, 1.53, 6.94, repro,
2008-11-06,0.75, 1.55, -2.11, 2.19, 1.54, 6.98, repro,
2008-11-07,2.40, 1.02, -1.53, 2.22, 1.57, 7.19, repro,
2008-11-08,1.65, 2.31, 0.51, 2.27, 1.64, 7.46, repro,
2008-11-09,0.62, 1.05, 3.11, 2.19, 1.56, 7.11, repro,
2008-11-10,2.93, 2.20, 4.86, 2.19, 1.58, 7.12, repro,
2008-11-11,1.27, 1.86, 3.28, 2.28, 1.66, 7.56, repro,
2008-11-12,0.33, -1.65, 4.33, 2.17, 1.53, 6.97, repro,
2008-11-13,1.34, 1.92, 5.74, 2.23, 1.56, 7.14, repro,
2008-11-14,3.47, 2.79, 9.47, 2.74, 2.07, 9.16, repro,
2008-11-15,1.76, 3.13, -7.53, 2.19, 1.56, 7.10, repro,
2008-11-16,1.82, 2.76, 1.09, 2.21, 1.61, 7.25, repro,
2008-11-17,-0.44, 2.11, -3.99, 2.25, 1.60, 7.26, repro,
2008-11-18,3.10, 3.00, 0.85, 2.27, 1.65, 7.46, repro,
2008-11-19,3.96, 3.82, -6.92, 2.20, 1.58, 7.15, repro,
2008-11-20,0.48, 0.03, -0.34, 2.26, 1.62, 7.28, repro,
2008-11-21,1.16, 3.38, -1.35, 2.28, 1.68, 7.58, repro,
2008-11-22,3.80, 4.11, 8.18, 2.33, 1.67, 7.53, repro,
2008-11-23,2.16, 2.22, -4.32, 2.28, 1.62, 7.30, repro,
2008-11-24,3.81, 3.37, -1.71, 2.26, 1.62, 7.36, repro,
2008-11-25,2.13, 2.19, -4.04, 2.26, 1.63, 7.32, repro,
2008-11-26,4.28, 2.10, -0.66, 2.16, 1.53, 6.94, repro,
2008-11-27,4.16, 3.18, -3.39, 2.18, 1.56, 7.08, repro,
2008-11-28,2.69, 1.38, -0.35, 2.24, 1.63, 7.32, repro,
2008-11-29,1.92, 4.07, 3.43, 2.33, 1.71, 7.69, repro,
2008-11-30,2.42, 2.66, 6.92, 2.23, 1.55, 7.05, repro,
2008-12-01,2.38, 0.20, 4.64, 2.19, 1.53, 6.98, repro,
2008-12-02,2.44, 0.61, 3.88, 2.25, 1.61, 7.19, repro,
2008-12-03,3.48, 2.52, 2.70, 2.25, 1.60, 7.16, repro,
2008-12-04,1.76, 2.75, 5.53, 2.51, 1.93, 8.41, repro,
2008-12-05,3.33, 2.82, 3.64, 2.22, 1.59, 7.20, repro,
2008-12-06,3.99, 2.12, 0.41, 2.27, 1.68, 7.57, repro,
2008-12-07,3.03, 1.77, 0.10, 2.23, 1.68, 7.49, repro,
2008-12-08,2.77, 2.60, -3.49, 2.19, 1.60, 7.20, repro,
2008-12-09,4.41, 1.69, -13.86, 2.23, 1.57, 7.09, repro,
2008-12-10,3.19, 1.98, -5.66, 2.24, 1.57, 7.14, repro,
2008-12-11,3.02, 1.99, -0.22, 2.32, 1.61, 7.28, repro,
2008-12-12,5.41, 2.18, -5.04, 2.27, 1.62, 7.40, repro,
2008-12-13,3.46, -0.30, 2.45, 2.17, 1.54, 6.93, repro,
2008-12-14,4.90, 1.62, -0.62, 2.18, 1.52, 6.98, repro,
2008-12-15,4.92, 2.49, 2.00, 2.18, 1.52, 6.97, repro,
2008-12-16,2.66, 2.73, 6.16, 2.17, 1.51, 6.92, repro,
2008-12-17,3.37, 1.99, -4.70, 2.20, 1.50, 6.89, repro,
2008-12-18,2.63, 1.30, 0.21, 2.20, 1.57, 7.06, repro,
2008-12-19,4.58, 2.26, -0.18, 2.22, 1.53, 7.11, repro,
2008-12-20,2.85, 2.66, -9.53, 2.21, 1.57, 7.18, repro,
2008-12-21,3.59, 0.99, 5.61, 2.23, 1.55, 7.19, repro,
2008-12-22,4.07, 0.84, 2.25, 2.19, 1.52, 6.96, repro,
2008-12-23,3.93, 1.71, 4.31, 2.19, 1.52, 6.96, repro,
2008-12-24,3.29, 0.93, 3.14, 2.19, 1.53, 6.95, repro,
2008-12-25,4.19, -0.09, 10.17, 2.15, 1.52, 6.89, repro,
2008-12-26,2.16, 2.22, 2.76, 2.18, 1.52, 6.96, repro,
2008-12-27,2.84, 1.14, 7.40, 2.18, 1.51, 6.92, repro,
2008-12-28,3.21, 2.31, 1.31, 2.18, 1.50, 6.90, repro,
2008-12-29,1.16, 2.27, -8.04, 2.17, 1.52, 6.96, repro,
2008-12-30,3.62, 2.41, -6.23, 2.18, 1.54, 7.04, repro,
2008-12-31,1.46, 1.30, -0.92, 2.18, 1.52, 6.99, repro,
2009-01-01,2.06, 2.14, -1.96, 2.16, 1.49, 6.85, repro,
2009-01-02,4.87, 1.89, -2.98, 2.16, 1.50, 6.86, repro,
2009-01-03,2.67, 2.95, -2.76, 2.19, 1.52, 6.99, repro,
2009-01-04,2.56, 3.47, -3.64, 2.14, 1.50, 6.82, repro,
2009-01-05,2.40, 2.77, 6.76, 2.18, 1.56, 7.13, repro,
2009-01-06,2.20, 0.26, -5.34, 2.22, 1.56, 7.16, repro,
2009-01-07,-0.33, -1.37, 0.02, 2.20, 1.50, 6.95, repro,
2009-01-08,2.94, 0.39, -1.20, 2.21, 1.55, 7.10, repro,
2009-01-09,3.63, 4.46, -8.72, 2.23, 1.56, 7.19, repro,
2009-01-10,3.32, 5.69, -14.01, 2.15, 1.50, 6.85, repro,
2009-01-11,4.24, 4.42, -11.94, 2.16, 1.50, 6.89, repro,
2009-01-12,3.65, 4.86, -7.71, 2.15, 1.49, 6.85, repro,
2009-01-13,4.05, 4.97, -8.76, 2.14, 1.50, 6.85, repro,
2009-01-14,3.71, 3.95, -9.90, 2.15, 1.50, 6.87, repro,
2009-01-15,1.83, 4.35, -11.74, 2.15, 1.51, 6.89, repro,
2009-01-16,2.96, 4.51, -9.57, 2.14, 1.51, 6.91, repro,
2009-01-17,4.30, 4.02, -9.73, 2.16, 1.50, 6.91, repro,
2009-01-18,4.84, 3.50, -5.65, 2.15, 1.50, 6.88, repro,
2009-01-19,3.33, 4.08, -8.54, 2.14, 1.50, 6.87, repro,
2009-01-20,1.78, 4.15, -7.97, 2.14, 1.50, 6.88, repro,
2009-01-21,1.98, 4.11, -5.47, 2.16, 1.51, 6.96, repro,
2009-01-22,3.91, 4.50, -4.54, 2.15, 1.51, 6.95, repro,
2009-01-23,1.32, 4.77, -11.57, 2.50, 1.74, 8.07, repro,
2009-01-26,2.73, 3.78, -3.28, 3.48, 2.62, 11.27, repro,
2009-01-27,1.15, 3.38, -1.15, 2.14, 1.51, 6.88, repro,
2009-01-28,1.29, 4.96, -8.39, 2.14, 1.50, 6.89, repro,
2009-01-29,1.50, 4.54, -8.52, 2.15, 1.51, 6.96, repro,
2009-01-30,2.66, 4.76, -7.56, 2.15, 1.52, 6.94, repro,
2009-01-31,3.53, 4.28, -6.01, 2.15, 1.51, 6.93, repro,
2009-02-01,0.90, 4.37, -6.11, 2.13, 1.51, 6.86, repro,
2009-02-02,2.44, 4.12, -8.67, 2.14, 1.50, 6.90, repro,
2009-02-03,2.83, 2.84, -11.71, 2.14, 1.51, 6.87, repro,
2009-02-04,2.38, 3.66, -7.30, 2.16, 1.51, 6.95, repro,
2009-02-05,0.32, 3.08, 0.57, 2.23, 1.60, 7.30, repro,
2009-02-06,1.57, 2.30, 0.29, 2.18, 1.55, 7.04, repro,
2009-02-07,0.81, 3.94, -6.58, 2.13, 1.52, 6.88, repro,
2009-02-08,2.67, 2.60, -2.56, 2.16, 1.54, 6.96, repro,
2009-02-09,1.03, 1.71, 1.19, 2.16, 1.54, 7.01, repro,
2009-02-10,2.40, 3.50, -3.14, 2.13, 1.51, 6.88, repro,
2009-02-11,2.32, 3.59, -2.92, 2.23, 1.59, 7.20, repro,
2009-02-12,1.73, 2.93, -3.95, 2.19, 1.55, 7.04, repro,
2009-02-13,1.96, 3.78, -1.87, 2.17, 1.56, 7.02, repro,
2009-02-14,1.47, 3.29, -1.73, 2.13, 1.51, 6.87, repro,
2009-02-15,2.54, 2.18, 1.47, 2.18, 1.54, 7.08, repro,
2009-02-16,1.15, 2.84, 3.37, 2.14, 1.51, 6.87, repro,
2009-02-17,1.12, 3.20, 2.52, 2.17, 1.51, 6.89, repro,
2009-02-18,1.35, 3.68, -1.88, 2.15, 1.54, 7.01, repro,
2009-02-19,1.54, 4.58, -4.61, 2.17, 1.54, 7.05, repro,
2009-02-20,2.17, 3.78, -11.80, 2.15, 1.54, 7.05, repro,
2009-02-21,1.74, 3.37, -5.33, 2.16, 1.54, 7.07, repro,
2009-02-22,0.14, 2.05, 3.01, 2.15, 1.52, 6.94, repro,
2009-02-23,2.67, 2.59, -9.28, 2.19, 1.55, 7.04, repro,
2009-02-24,-0.41, 0.46, 3.07, 2.29, 1.68, 7.43, repro,
2009-02-25,0.10, -0.11, -10.34, 187.82, 180.50, 343.14, repro,
2009-02-26,3.00, 3.52, -7.11, 2.15, 1.55, 7.03, repro,
2009-02-27,2.20, 3.88, -10.42, 2.23, 1.59, 7.31, repro,
2009-02-28,2.03, 4.08, -12.58, 2.16, 1.54, 7.06, repro,
2009-03-01,1.04, 3.90, -0.98, 2.17, 1.57, 7.18, repro,
2009-03-02,1.69, 3.15, 4.83, 2.13, 1.52, 6.93, repro,
2009-03-03,2.49, 2.36, 0.19, 2.16, 1.58, 7.09, repro,
2009-03-04,1.72, 2.87, 0.79, 2.11, 1.53, 6.90, repro,
2009-03-05,2.20, 3.38, -4.69, 2.15, 1.54, 7.02, repro,
2009-03-06,2.96, 3.73, -0.39, 2.21, 1.62, 7.33, repro,
2009-03-07,2.01, 4.39, -7.81, 2.13, 1.51, 6.88, repro,
2009-03-08,3.27, 3.06, -7.88, 2.12, 1.53, 6.88, repro,
2009-03-09,4.14, 7.29, -8.98, 2.14, 1.56, 7.03, repro,
2009-03-10,2.10, 4.06, -7.62, 2.15, 1.55, 7.03, repro,
2009-03-11,3.20, 3.79, -7.00, 2.13, 1.51, 6.88, repro,
2009-03-12,0.99, 3.84, -6.77, 2.19, 1.59, 7.20, repro,
2009-03-13,1.61, 3.70, -4.92, 2.15, 1.55, 7.02, repro,
2009-03-14,3.79, 2.63, 2.48, 2.12, 1.52, 6.86, repro,
2009-03-15,1.97, 2.32, 2.38, 2.12, 1.53, 6.88, repro,
2009-03-16,1.72, 2.96, -7.78, 2.14, 1.53, 6.94, repro,
2009-03-17,2.43, 1.97, 0.37, 2.15, 1.52, 6.88, repro,
2009-03-18,3.23, 5.62, -10.10, 2.12, 1.50, 6.81, repro,
2009-03-19,0.95, 4.00, -5.00, 2.14, 1.52, 6.90, repro,
2009-03-20,2.81, 3.05, -4.45, 2.13, 1.52, 6.89, repro,
2009-03-21,2.15, 2.97, -3.82, 2.11, 1.51, 6.79, repro,
2009-03-22,1.34, 3.13, 1.36, 2.11, 1.52, 6.81, repro,
2009-03-23,1.62, 4.19, -3.78, 2.13, 1.51, 6.81, repro,
2009-03-24,1.74, 4.42, -4.14, 2.13, 1.52, 6.87, repro,
2009-03-25,2.78, 3.73, -2.63, 2.15, 1.53, 6.92, repro,
2009-03-26,2.86, 4.10, -7.20, 2.15, 1.53, 6.92, repro,
2009-03-27,2.46, 3.70, -3.53, 2.16, 1.52, 6.88, repro,
2009-03-28,0.83, 2.79, -3.32, 2.18, 1.53, 6.93, repro,
2009-03-29,1.92, 2.22, -6.12, 2.21, 1.54, 7.04, repro,
2009-03-30,1.89, 4.38, -2.93, 2.20, 1.54, 7.05, repro,
2009-03-31,2.06, 2.11, -4.27, 2.18, 1.54, 7.01, repro,
2009-04-01,2.76, 4.33, 3.78, 2.17, 1.53, 6.92, repro,
2009-04-02,1.61, 1.22, -2.55, 2.23, 1.57, 7.12, repro,
2009-04-03,2.85, 4.11, -6.45, 2.25, 1.59, 7.13, repro,
2009-04-04,1.55, 3.84, -4.03, 2.19, 1.53, 6.99, repro,
2009-04-05,1.88, 3.81, -6.47, 2.20, 1.54, 7.05, repro,
2009-04-06,1.40, 4.24, -8.24, 2.19, 1.52, 6.96, repro,
2009-04-07,1.93, 3.04, -6.30, 2.17, 1.52, 6.88, repro,
2009-04-08,2.14, 3.42, -0.24, 2.19, 1.53, 6.98, repro,
2009-04-09,1.03, 3.60, 0.07, 2.18, 1.52, 6.94, repro,
2009-04-10,1.46, 3.27, -4.98, 2.19, 1.53, 6.98, repro,
2009-04-11,1.68, 2.87, -1.06, 2.24, 1.57, 7.15, repro,
2009-04-12,2.08, 3.04, -4.45, 2.19, 1.52, 6.96, repro,
2009-04-13,-1.77, -0.83, -7.99, 2.24, 1.56, 7.11, repro,
2009-04-14,2.42, 2.70, -2.17, 2.20, 1.53, 7.00, repro,
2009-04-15,2.71, 2.86, -1.20, 2.19, 1.52, 6.97, repro,
2009-04-16,1.63, 3.47, -2.70, 2.22, 1.54, 7.11, repro,
2009-04-17,1.34, 4.50, -5.07, 2.23, 1.55, 7.10, repro,
2009-04-18,1.70, 4.42, -9.61, 2.20, 1.52, 7.00, repro,
2009-04-19,1.60, 4.32, -7.16, 2.17, 1.52, 6.91, repro,
2009-04-20,1.70, 3.92, -5.71, 2.18, 1.52, 6.92, repro,
2009-04-21,2.84, 3.88, -1.24, 2.23, 1.54, 7.09, repro,
2009-04-22,1.54, 2.39, 0.43, 2.21, 1.52, 7.01, repro,
2009-04-23,0.61, 3.23, 0.19, 2.26, 1.57, 7.20, repro,
2009-04-24,0.24, 3.48, -3.41, 2.27, 1.57, 7.15, repro,
2009-04-25,0.15, 3.89, -0.42, 2.20, 1.52, 6.97, repro,
2009-04-26,0.32, 3.03, -3.69, 2.19, 1.51, 6.96, repro,
2009-04-27,0.80, 3.12, -0.41, 2.22, 1.53, 7.05, repro,
2009-04-28,0.74, 3.51, -1.72, 2.25, 1.55, 7.15, repro,
2009-04-29,2.36, 4.66, -5.67, 2.28, 1.62, 7.34, repro,
2009-04-30,0.67, 3.56, -7.89, 2.26, 1.59, 7.20, repro,
2009-05-01,0.45, 2.95, 0.73, 2.19, 1.51, 6.92, repro,
2009-05-02,1.42, 2.82, -5.86, 2.21, 1.52, 6.97, repro,
2009-05-03,0.98, 1.99, 1.14, 2.20, 1.52, 7.01, repro,
2009-05-04,0.98, 4.85, 3.51, 2.22, 1.54, 7.05, repro,
2009-05-05,-0.06, 1.63, 4.63, 2.21, 1.53, 7.03, repro,
2009-05-06,2.40, 2.46, 1.64, 2.25, 1.54, 7.11, repro,
2009-05-07,-0.41, 1.43, -1.81, 2.19, 1.51, 6.95, repro,
2009-05-08,1.64, 5.43, -6.52, 2.19, 1.51, 6.94, repro,
2009-05-09,1.73, 4.18, -10.10, 2.17, 1.51, 6.90, repro,
2009-05-10,1.47, 5.18, -6.22, 2.20, 1.52, 6.96, repro,
2009-05-11,0.36, 5.87, -5.65, 2.20, 1.52, 6.98, repro,
2009-05-12,-0.14, 2.67, -2.31, 2.23, 1.56, 7.13, repro,
2009-05-13,2.14, 5.00, -7.66, 2.27, 1.59, 7.15, repro,
2009-05-14,3.41, 1.87, -5.24, 2.25, 1.61, 7.29, repro,
2009-05-15,3.36, 4.51, -8.32, 2.19, 1.52, 6.95, repro,
2009-05-16,1.61, 5.22, -10.97, 2.19, 1.52, 6.98, repro,
2009-05-17,0.99, 5.07, -10.84, 2.19, 1.52, 6.96, repro,
2009-05-18,2.22, 3.99, -3.20, 2.20, 1.53, 7.04, repro,
2009-05-19,2.55, 4.39, -7.54, 2.26, 1.61, 7.34, repro,
2009-05-20,1.98, 4.38, -2.89, 2.20, 1.52, 7.02, repro,
2009-05-21,1.74, 4.62, -5.84, 2.20, 1.52, 7.03, repro,
2009-05-22,1.71, 3.98, -6.76, 2.26, 1.55, 7.10, repro,
2009-05-23,0.06, 4.94, -7.48, 2.20, 1.52, 7.02, repro,
2009-05-24,1.97, 4.05, -12.09, 2.19, 1.51, 6.97, repro,
2009-05-25,1.25, 4.52, -8.67, 2.17, 1.51, 6.91, repro,
2009-05-26,1.63, 4.26, -1.83, 2.19, 1.51, 6.99, repro,
2009-05-27,1.19, 4.63, -0.84, 2.20, 1.51, 6.99, repro,
2009-05-28,0.84, 3.69, -3.02, 2.19, 1.53, 7.05, repro,
2009-05-29,0.27, 3.55, -6.72, 2.19, 1.52, 7.02, repro,
2009-05-30,1.40, 3.55, -7.61, 2.20, 1.51, 7.03, repro,
2009-05-31,1.51, 2.95, -8.52, 2.19, 1.51, 7.02, repro,
2009-06-01,-0.23, 4.36, -4.12, 2.19, 1.51, 7.00, repro,
2009-06-02,0.83, 4.39, -7.13, 2.18, 1.51, 6.99, repro,
2009-06-03,1.07, 2.49, -7.38, 2.19, 1.52, 7.05, repro,
2009-06-04,1.23, 2.92, -8.42, 2.20, 1.52, 7.03, repro,
2009-06-05,3.05, 3.98, -2.17, 2.18, 1.52, 6.99, repro,
2009-06-06,1.75, 3.61, -4.69, 2.23, 1.54, 7.10, repro,
2009-06-07,2.22, 3.62, -3.70, 2.19, 1.50, 6.96, repro,
2009-06-08,2.38, 3.54, -2.15, 2.22, 1.56, 7.08, repro,
2009-06-09,1.87, 3.33, -3.92, 2.19, 1.51, 6.98, repro,
2009-06-10,0.99, 3.11, -4.66, 2.18, 1.51, 6.98, repro,
2009-06-11,2.00, 3.91, -6.30, 2.20, 1.52, 7.04, repro,
2009-06-12,0.97, 3.83, -6.77, 2.19, 1.51, 6.99, repro,
2009-06-13,0.51, 3.72, -4.54, 2.18, 1.51, 6.92, repro,
2009-06-14,2.35, 4.11, -6.79, 2.20, 1.57, 7.17, repro,
2009-06-15,-0.09, 3.35, -4.84, 2.17, 1.51, 6.94, repro,
2009-06-16,1.86, 3.47, -10.22, 2.21, 1.53, 7.04, repro,
2009-06-17,1.53, 3.51, -5.13, 2.20, 1.52, 7.01, repro,
2009-06-18,1.98, 3.35, -5.38, 2.18, 1.51, 6.93, repro,
2009-06-19,0.69, 2.49, -3.01, 2.21, 1.54, 7.11, repro,
2009-06-20,1.21, 3.79, -1.63, 2.23, 1.57, 7.18, repro,
2009-06-21,2.20, 2.89, -3.20, 2.15, 1.51, 6.90, repro,
2009-06-22,0.61, 3.50, -3.00, 2.23, 1.55, 7.23, repro,
2009-06-23,1.42, 4.32, -6.94, 2.19, 1.52, 7.00, repro,
2009-06-24,1.50, 2.95, 1.61, 2.24, 1.57, 7.18, repro,
2009-06-25,-0.46, 4.04, -4.86, 2.27, 1.59, 7.35, repro,
2009-06-26,2.17, 3.02, -3.69, 2.18, 1.54, 7.00, repro,
2009-06-27,0.35, 3.31, -6.96, 2.28, 1.59, 7.37, repro,
2009-06-28,1.05, 2.81, -7.84, 2.46, 1.70, 7.78, repro,
2009-06-29,1.56, 4.79, -8.87, 2.32, 1.62, 7.49, repro,
2009-06-30,-1.48, 3.65, -5.58, 2.17, 1.55, 7.01, repro,
2009-07-01,2.05, 3.43, -5.23, 2.19, 1.54, 7.08, repro,
2009-07-02,0.32, 2.91, -0.13, 2.18, 1.51, 6.94, repro,
2009-07-03,0.46, 3.14, -1.92, 2.17, 1.51, 6.94, repro,
2009-07-04,0.84, 4.48, -10.71, 2.18, 1.53, 7.00, repro,
2009-07-05,0.88, 3.54, 0.83, 2.17, 1.52, 6.96, repro,
2009-07-06,-0.50, 3.56, -0.19, 2.16, 1.52, 6.98, repro,
2009-07-07,-0.41, 3.42, -2.31, 2.18, 1.52, 6.95, repro,
2009-07-08,0.93, 2.81, 4.10, 2.16, 1.51, 6.89, repro,
2009-07-09,0.68, 3.08, 0.03, 2.17, 1.52, 6.88, repro,
2009-07-10,1.58, 4.37, -6.09, 2.16, 1.53, 6.95, repro,
2009-07-11,0.15, 3.18, 0.62, 2.17, 1.53, 7.02, repro,
2009-07-12,-0.03, 2.75, 3.77, 2.83, 2.08, 9.52, repro,
2009-07-13,-0.05, 3.15, -5.13, 2.16, 1.51, 6.88, repro,
2009-07-14,0.17, 3.39, -0.57, 2.17, 1.52, 6.97, repro,
2009-07-15,0.18, 3.45, 0.15, 2.15, 1.52, 6.91, repro,
2009-07-16,1.55, 4.63, -4.83, 2.15, 1.52, 6.88, repro,
2009-07-17,0.03, 4.39, -5.45, 2.16, 1.53, 6.96, repro,
2009-07-18,0.49, 2.11, 4.69, 2.25, 1.57, 7.28, repro,
2009-07-19,0.98, 3.61, -3.73, 2.16, 1.51, 6.86, repro,
2009-07-20,0.97, 3.73, -5.40, 2.16, 1.51, 6.92, repro,
2009-07-21,-0.81, 3.59, 3.26, 2.16, 1.53, 6.93, repro,
2009-07-22,-0.06, 4.57, 1.76, 2.16, 1.52, 6.93, repro,
2009-07-23,-0.88, 2.24, 3.38, 2.17, 1.52, 6.97, repro,
2009-07-24,-1.58, 2.99, -1.68, 2.20, 1.57, 7.20, repro,
2009-07-25,-0.41, 3.50, -3.29, 2.22, 1.55, 7.10, repro,
2009-07-26,-0.76, 2.85, -1.25, 2.26, 1.58, 7.29, repro,
2009-07-27,-0.59, 3.90, 1.68, 2.16, 1.53, 6.97, repro,
2009-07-28,1.28, 4.07, -3.39, 2.28, 1.61, 7.26, repro,
2009-07-29,0.38, 2.51, -2.21, 2.18, 1.53, 7.01, repro,
2009-07-30,-0.68, 3.15, 1.22, 2.20, 1.54, 7.03, repro,
2009-07-31,-0.28, 2.74, -1.07, 2.17, 1.52, 6.96, repro,
2009-08-01,0.97, 2.04, 2.55, 2.17, 1.53, 7.01, repro,
2009-08-02,0.79, 2.62, 2.47, 2.20, 1.58, 7.21, repro,
2009-08-03,-0.02, 3.20, 2.28, 2.22, 1.57, 7.09, repro,
2009-08-04,-0.61, 2.46, 2.04, 2.82, 2.08, 9.53, repro,
2009-08-05,-0.74, 1.69, -0.85, 2.23, 1.55, 7.17, repro,
2009-08-06,0.47, 1.62, -0.39, 2.15, 1.52, 6.90, repro,
2009-08-07,-1.24, 2.23, 4.66, 2.58, 1.94, 8.91, repro,
2009-08-08,-0.24, 3.46, 0.39, 2.20, 1.55, 7.11, repro,
2009-08-09,-0.81, 2.44, -0.29, 2.17, 1.53, 6.97, repro,
2009-08-10,-1.29, 2.82, -3.19, 2.17, 1.53, 6.95, repro,
2009-08-11,0.34, 2.95, -4.52, 2.19, 1.53, 7.01, repro,
2009-08-12,-2.93, 2.72, 9.36, 2.21, 1.54, 7.08, repro,
2009-08-13,0.45, 2.20, -0.96, 2.25, 1.58, 7.17, repro,
2009-08-14,-0.03, 2.94, -3.64, 2.18, 1.54, 6.93, repro,
2009-08-15,-1.15, 1.57, 2.39, 2.23, 1.55, 7.08, repro,
2009-08-16,-0.72, 2.18, 1.87, 2.30, 1.59, 7.20, repro,
2009-08-17,-1.37, 2.82, 1.70, 2.21, 1.53, 7.01, repro,
2009-08-18,-0.54, 1.86, 10.32, 2.32, 1.60, 7.26, repro,
2009-08-19,-0.57, 1.48, 2.09, 2.20, 1.55, 7.01, repro,
2009-08-20,-1.69, 1.19, 2.46, 2.19, 1.56, 7.03, repro,
2009-08-21,-1.87, 1.13, 2.58, 2.25, 1.59, 7.20, repro,
2009-08-22,-0.90, 2.16, -1.28, 2.25, 1.58, 7.20, repro,
2009-08-23,-1.75, 0.68, 7.47, 2.33, 1.66, 7.61, repro,
2009-08-24,-2.21, -0.33, 9.37, 2.23, 1.58, 7.12, repro,
2009-08-25,-2.82, 0.84, 9.42, 2.26, 1.62, 7.30, repro,
2009-08-26,-2.90, -0.47, 7.40, 2.23, 1.57, 7.16, repro,
2009-08-27,-1.85, -0.28, 5.48, 2.26, 1.59, 7.23, repro,
2009-08-28,-2.31, -0.01, 2.52, 2.22, 1.56, 7.10, repro,
2009-08-29,-1.08, -1.54, 2.41, 2.19, 1.54, 6.95, repro,
2009-08-30,-1.13, -0.62, 6.33, 2.18, 1.54, 6.90, repro,
2009-08-31,-1.58, -1.29, 3.76, 2.19, 1.55, 7.00, repro,
2009-09-01,-3.61, -2.39, 5.79, 2.23, 1.56, 7.10, repro,
2009-09-02,-2.43, -1.73, 4.67, 2.19, 1.54, 6.98, repro,
2009-09-03,-2.02, -1.90, 3.27, 2.17, 1.54, 6.95, repro,
2009-09-04,-0.51, -1.64, -0.75, 2.18, 1.56, 7.02, repro,
2009-09-05,-0.66, -3.42, 5.17, 2.22, 1.60, 7.23, repro,
2009-09-06,-0.66, -3.50, 13.86, 2.28, 1.60, 7.32, repro,
2009-09-07,0.18, -3.23, 1.07, 2.21, 1.55, 7.10, repro,
2009-09-08,-2.55, -3.22, 8.37, 2.75, 2.19, 9.36, repro,
2009-09-09,-3.29, -1.66, 10.71, 2.19, 1.56, 7.05, repro,
2009-09-10,-2.16, -2.02, 4.70, 2.20, 1.56, 7.06, repro,
2009-09-11,-0.51, -2.36, 3.54, 2.26, 1.59, 7.13, repro,
2009-09-12,-1.60, -1.64, 5.20, 2.17, 1.53, 6.97, repro,
2009-09-13,-2.10, -1.30, 10.14, 2.25, 1.62, 7.28, repro,
2009-09-14,0.41, -2.74, 8.41, 2.16, 1.53, 6.92, repro,
2009-09-15,-2.01, -2.78, 6.22, 2.17, 1.54, 6.95, repro,
2009-09-16,0.32, -2.87, 0.34, 2.52, 1.79, 7.99, repro,
2009-09-17,0.19, -2.18, 1.04, 2.19, 1.56, 7.06, repro,
2009-09-18,-2.78, -0.74, 8.75, 2.22, 1.58, 7.23, repro,
2009-09-19,-2.24, -1.13, 5.62, 2.19, 1.54, 7.01, repro,
2009-09-20,-1.16, -2.47, -0.38, 2.16, 1.54, 7.01, repro,
2009-09-21,-1.26, -1.53, 3.63, 2.16, 1.54, 6.96, repro,
2009-09-22,-2.19, -2.67, 1.88, 2.22, 1.58, 7.12, repro,
2009-09-23,-1.61, -2.04, -0.91, 2.21, 1.57, 7.08, repro,
2009-09-24,-3.94, -0.52, 7.14, 2.17, 1.53, 6.95, repro,
2009-09-25,-2.14, -2.53, 3.20, 2.19, 1.57, 7.12, repro,
2009-09-26,-2.28, -1.90, 5.38, 2.18, 1.54, 7.03, repro,
2009-09-27,-2.36, -2.15, 6.04, 2.17, 1.54, 6.96, repro,
2009-09-28,-3.57, -3.17, 6.21, 2.25, 1.57, 7.21, repro,
2009-09-29,-2.59, -2.78, -0.76, 2.26, 1.60, 7.32, repro,
2009-09-30,-0.35, -0.83, 7.76, 2.17, 1.54, 6.97, repro,
2009-10-01,-1.76, -2.87, 4.19, 2.34, 1.67, 7.48, repro,
2009-10-02,-1.16, -1.96, 4.75, 2.17, 1.54, 6.98, repro,
2009-10-03,0.48, -1.53, 8.45, 2.17, 1.56, 7.02, repro,
2009-10-04,-0.50, -2.52, -2.87, 2.18, 1.55, 7.08, repro,
2009-10-05,-1.46, -2.29, 7.33, 2.19, 1.55, 7.07, repro,
2009-10-06,-1.25, -1.54, 7.44, 2.17, 1.54, 7.02, repro,
2009-10-07,-0.69, -2.77, 7.40, 2.24, 1.57, 7.09, repro,
2009-10-08,-0.68, -1.71, 7.38, 2.25, 1.58, 7.10, repro,
2009-10-09,-1.19, -1.63, 1.60, 2.18, 1.55, 7.07, repro,
2009-10-10,-3.04, -1.04, 5.12, 2.18, 1.56, 7.17, repro,
2009-10-11,-0.92, -1.25, 7.36, 2.20, 1.60, 7.22, repro,
2009-10-12,-1.34, -1.65, 7.96, 2.17, 1.54, 7.04, repro,
2009-10-13,-1.29, -2.55, 15.73, 2.17, 1.56, 7.05, repro,
2009-10-14,-5.86, -2.88, 11.20, 2.26, 1.60, 7.21, repro,
2009-10-15,-0.11, -0.61, 7.45, 2.20, 1.61, 7.26, repro,
2009-10-16,2.05, -2.65, 11.82, 2.26, 1.66, 7.53, repro,
2009-10-17,0.43, -3.14, -0.36, 2.26, 1.61, 7.33, repro,
2009-10-18,0.01, -1.01, 9.31, 2.27, 1.61, 7.41, repro,
2009-10-19,0.49, -1.41, 9.45, 2.20, 1.58, 7.12, repro,
2009-10-20,-0.89, -1.24, 1.34, 2.19, 1.63, 7.24, repro,
2009-10-21,-1.51, -2.09, 11.06, 2.20, 1.62, 7.26, repro,
2009-10-22,-0.31, 0.00, 5.38, 2.24, 1.62, 7.31, repro,
2009-10-23,-1.22, 0.63, 4.99, 2.83, 2.20, 9.91, repro,
2009-10-24,0.88, -0.05, 7.91, 2.30, 1.63, 7.35, repro,
2009-10-25,0.25, 0.66, 6.06, 2.24, 1.63, 7.28, repro,
2009-10-26,-1.81, -1.88, 9.74, 2.23, 1.65, 7.39, repro,
2009-10-27,-2.06, -2.95, 17.19, 2.26, 1.69, 7.63, repro,